Location: ???????
(55.4362°N, 38.1183°E)
Time: 20:48:22
(UTC+00:00)

USA 267 - Pass Details

Date: 30 October 2021
Orbit: 1101 x 1107 km, 123.0° (Epoch: 27 November)

Event Time Altitude Azimuth Distance (km) Brightness Sun altitude
Exits shadow 17:05:08 13° 180° (S) 2,767 5.2 -27.5°
Maximum altitude 17:09:45 26° 230° (SW) 2,030 4.9 -28.1°
Drops below altitude 10° 17:15:02 10° 284° (WNW) 2,964 6.5 -28.9°
Sets 17:18:02 0° 297° (WNW) 3,925 7.4 -29.3°
